This is the latest recevied weather packets stored in our database for station/object W5CMS-13. If no packets are shown the sender has not sent any weather packets the latest 1 day(s).
| Time | Temp. | Humidity | Pressure | Rain* | Wind** | Luminosity | Snow |
|---|---|---|---|---|---|---|---|
| 1778017216 | 31.67° C | 59% | 1002.9 hPa | 0 mm | 0.45 m/s, 203° | - | - |
| 1778016616 | 31.67° C | 59% | 1003 hPa | 0 mm | 0.45 m/s, 270° | - | - |
| 1778016016 | 32.22° C | 61% | 1003.1 hPa | 0 mm | 0.45 m/s, 203° | - | - |
| 1778015416 | 32.22° C | 60% | 1003.2 hPa | 0 mm | 1.34 m/s, 225° | - | - |
| 1778014816 | 31.67° C | 63% | 1003.2 hPa | 0 mm | 0.89 m/s, 225° | - | - |
| 1778014216 | 31.11° C | 64% | 1003.4 hPa | 0 mm | 1.34 m/s, 225° | - | - |
| 1778013616 | 31.11° C | 64% | 1003.5 hPa | 0 mm | 2.68 m/s, 225° | - | - |
| 1778013016 | 31.11° C | 64% | 1003.8 hPa | 0 mm | 1.34 m/s, 248° | - | - |
| 1778012417 | 30.56° C | 66% | 1003.7 hPa | 0 mm | 1.79 m/s, 203° | - | - |
| 1778011816 | 30.56° C | 67% | 1003.8 hPa | 0 mm | 2.24 m/s, 225° | - | - |
| 1778011216 | 30.56° C | 66% | 1003.8 hPa | 0 mm | 1.34 m/s, 225° | - | - |
| 1778010616 | 30.56° C | 67% | 1003.9 hPa | 0 mm | 1.34 m/s, 225° | - | - |
| 1778010016 | 30° C | 67% | 1004 hPa | 0 mm | 0.89 m/s, 225° | - | - |
| 1778009416 | 29.44° C | 68% | 1003.9 hPa | 0 mm | 1.34 m/s, 248° | - | - |
| 1778008816 | 29.44° C | 69% | 1004 hPa | 0 mm | 2.24 m/s, 203° | - | - |
| 1778008216 | 28.89° C | 69% | 1004 hPa | 0 mm | 2.68 m/s, 225° | - | - |
| 1778007616 | 28.89° C | 71% | 1004.1 hPa | 0 mm | 2.68 m/s, 225° | - | - |
| 1778007016 | 28.33° C | 71% | 1004.1 hPa | 0 mm | 2.24 m/s, 203° | - | - |
| 1778006416 | 28.33° C | 72% | 1004.2 hPa | 0 mm | 1.79 m/s, 248° | - | - |
| 1778005816 | 28.33° C | 72% | 1004.1 hPa | 0 mm | 1.79 m/s, 225° | - | - |
| 1778005216 | 28.33° C | 71% | 1004.1 hPa | 0 mm | 1.34 m/s, 225° | - | - |
| 1778004616 | 28.33° C | 72% | 1004.3 hPa | 0 mm | 1.79 m/s, 225° | - | - |
| 1778004021 | 27.78° C | 73% | 1004.2 hPa | 0 mm | 1.34 m/s, 225° | - | - |
| 1778003416 | 27.78° C | 73% | 1004.2 hPa | 0 mm | 1.79 m/s, 225° | - | - |
| 1778002816 | 27.78° C | 74% | 1004.2 hPa | 0 mm | 0.89 m/s, 248° | - | - |
* Rain latest hour (hover to see other rain measurements)
** Current wind speed in m/s (hover to see current wind gust speed)